CZ-4 DEB

Satellite information

Favourite Embed

Satellite Type and Status

DEBRISIN ORBIT

Key statistics

Satellite CZ-4 DEB at a glance.

Uptime

9516

Days in orbit

Revolutions

≈ 14.7

Per day

Orbit

SSO

Sun Synchronous Orbit

Inclination

98.2

Latest

Satellite identification and parameters

Extended collection of information and parameters for CZ-4 DEB.

Object identification

Identified? True

Debris? True

Object name: CZ-4 DEB

International designator: 1999-057CG

Object number (NORAD): 26194

Object ID (CCSDS): 26194

Country: PEOPLES REPUBLIC OF CHINA (PRC)

Current information (Y/N): Y

RCS size: SMALL

Orbital parameters

Period: 97.939 minutes

Inclination: 98.1511 deg

SMA: 7038.254 km

Apoapsis: 690.445 km

Periapsis: 629.792 km

RAAN: 258.7042 deg

Eccentricy: 0.0043088

Argument of periapsis: 341.6553 deg

Mean anomaly: 139.7644 deg

Mean motion: 14.70298022 rev/day

Mean motion (dot): 0.00005056 rev/day2

B* drag term: 0.00083383 1/REarth

Two-line elements (TLE)

Creation date: Oct. 31, 2025, 11:16 p.m.

Reference frame: TEME

Reference center: EARTH

Epoch: Oct. 31, 2025, 5:16 p.m. UTC

TLE line 0: 0 CZ-4 DEB

TLE line 1: 1 26194U 99057CG 25304.72001250 .00005056 00000-0 83383-3 0 9997

TLE line 2: 2 26194 98.1511 258.7042 0043088 341.6553 139.7644 14.70298022611329

Live tracking on map

Real-time ground track for satellite CZ-4 DEB.

In-orbit conjunctions

A list of the most updated potential collisions computed for object CZ-4 DEB.

Target Orbit TCA Probability of collision Miss distance Type
COSMOS 192 LEO 2024-10-23 16:52:35 0.0001522014 417.0 (m) PAYLOAD
COSMOS 2251 DEB LEO 2024-08-02 17:27:47 0.0001548923 128.0 (m) DEBRIS

Associated space launch

The CBERS (China Brazil Earth Resources Satellite) or ZY 1 (Zi Yuan) satellites are designed for global coverage and include cameras to make optical observations and a data collecting system to gather data on the environment. They are unique systems due to the use of on-board sensors which combine features that are especially designed to resolve the broad range of space and time scales involved in the monitoring and preservation of the ecosystem. They are operated jointly by the China Centre for Resources Satellite Data and Application (CRESDA) and the Brazilian INPE (Instituto Nacional de Pesquisas Espaciais, National Institute of Space Research).

CZ-4 DEB was lifted into orbit during the mission ‘Long March 4B | Zi Yuan 1-1’, on board a Long March 4B space rocket.

The launch took place on Oct. 14, 1999, 3:15 a.m. from Launch Complex 7.

For more information about the launch, click the button.

Launch to space Long March 4B | Zi Yuan 1-1
Long March 4B | Zi Yuan 1-1

Agency: N/A

Status: Launch Successful

Launch date: Oct. 14, 1999, 3:15 a.m. UTC

Rocket: Long March 4B

Launch pad: Launch Complex 7

Location: Taiyuan Satellite Launch Center, People's Republic of China

...

Latest news about this satellite

There are no fresh news available about this satellite. Check back as we update our databases every day.


Newsletter sign-up

Weekly statistics, charts and insights to help you stay on top of the space industry.